This demonstration page uses our WeatherBlox Daily Observations layout. Learn more.

Left ArrowRight Arrow

31.31129, -92.44514

Hourly Observations for August 11, 2018

Temp ( °F °C ) Dew Point ( °F °C ) Humidity (%) Winds ( mph kmh ) Pressure ( in mb ) Visibility ( mi km ) Precip ( " mm )
12:15 am 00:15 Cloudy with Light Rain 72 22.2 71 21.7 97 97 Calm 30.00 1016 7 11 0.00 0.03
12:39 am 00:39 Partly Cloudy with Mist and Fog 72 22.2 71 21.7 97 97 E 3 6 30.00 1016 6 10 0.00 0.03
12:53 am 00:53 Partly Cloudy with Light Rain 72 22.2 71 21.7 97 97 SE 3 6 30.00 1016 8 13 0.00 0.03
1:25 am 01:25 Mostly Cloudy with Light Rain 72 22.2 71 21.7 97 97 SSE 3 6 30.00 1016 2 3 0.00 0.03
1:34 am 01:34 Mostly Cloudy with Fog 72 22.2 71 21.7 97 97 SSE 5 7 30.00 1016 1 1 0.00 0.03
1:42 am 01:42 Mostly Cloudy with Light Rain 72 22.2 71 21.7 97 97 SSE 3 6 30.00 1016 0 0 0.00 0.03
1:53 am 01:53 Mostly Cloudy with Light Rain 72 22.2 71 21.7 97 97 SSE 5 7 30.00 1016 0 0 0.00 0.03
2:01 am 02:01 Mostly Cloudy with Light Rain 72 22.2 71 21.7 97 97 SSE 5 7 30.00 1016 1 1 0.00 0.03
2:17 am 02:17 Mostly Cloudy with Light Rain 72 22.2 71 21.7 97 97 Calm 30.00 1016 0 0 0.00 0.03
2:53 am 02:53 Mostly Cloudy with Fog 71 21.7 71 21.7 100 100 Calm 29.99 1016 1 1 0.00 0.03
3:35 am 03:35 Mostly Cloudy with Fog 71 21.7 71 21.7 100 100 SSE 3 6 30.00 1016 0 0 0.00 0.03
3:53 am 03:53 Mostly Cloudy with Fog 71 21.7 71 21.7 100 100 Calm 30.00 1016 0 0 0.00 0.03
4:09 am 04:09 Mostly Cloudy with Mist and Fog 71 21.7 70 21.1 96 96 SSE 3 6 30.00 1016 1 1 0.00 0.00
4:22 am 04:22 Cloudy with Mist and Fog 71 21.7 71 21.7 100 100 Calm 30.00 1016 1 2 0.00 0.00
4:36 am 04:36 Mostly Cloudy with Mist and Fog 71 21.7 70 21.1 96 96 Calm 30.00 1016 1 1 0.00 0.00
4:48 am 04:48 Mostly Cloudy with Light Rain 72 22 70 21 94 94 SSE 3 6 30.00 1016 3 4 0.00 0.03
4:51 am 04:51 Partly Cloudy with Light Rain 72 22 70 21 94 94 SSE 3 6 30.00 1016 4 6 0.00 0.03
4:53 am 04:53 Partly Cloudy with Light Rain 71 21.7 70 21.1 96 96 SSE 3 6 30.00 1016 3 5 0.00 0.03
4:57 am 04:57 Partly Cloudy with Light Rain 71 21.7 70 21.1 96 96 SSE 3 6 30.00 1016 2 3 0.00 0.03
5:06 am 05:06 Mostly Cloudy with Light Rain 70 21.1 70 21.1 100 100 S 3 6 30.00 1016 2 2 0.00 0.03
5:35 am 05:35 Mostly Cloudy with Mist and Fog 70 21.1 70 21.1 100 100 Calm 30.00 1016 1 1 0.00 0.03
5:39 am 05:39 Mostly Clear with Mist and Fog 70 21.1 70 21.1 100 100 Calm 30.00 1016 1 2 0.00 0.03
5:44 am 05:44 Mostly Clear with Mist and Fog 70 21.1 69 20.6 97 97 Calm 30.00 1016 4 6 0.00 0.03
5:53 am 05:53 Clear 70 21.1 70 21.1 100 100 Calm 30.01 1016 7 11 0.00 0.03
6:53 am 06:53 Mostly Cloudy with Mist and Fog 70 21.1 70 21.1 100 100 Calm 30.03 1017 5 8 0.00 0.00
7:53 am 07:53 Sunny 73 22.8 72 22.2 96 96 Calm 30.04 1017 9 14 0.00 0.00
8:53 am 08:53 Sunny 78 25.6 73 22.8 85 85 Calm 30.06 1018 10 16 0.00 0.00
9:53 am 09:53 Mostly Sunny 83 28.3 74 23.3 74 74 W 5 7 30.07 1018 10 16 0.00 0.00
10:50 am 10:50 Mostly Cloudy 84 29 73 23 70 70 Calm 30.06 1018 10 16 0.00 0.03
10:53 am 10:53 Mostly Cloudy 85 29.4 75 23.9 72 72 Calm 30.06 1018 10 16 0.00 0.03
11:20 am 11:20 Cloudy 87 30.6 74 23.3 65 65 WNW 9 15 30.06 1018 9 14 0.00 0.00
11:53 am 11:53 Mostly Cloudy 89 31.7 73 22.8 59 59 N 6 9 30.03 1017 9 14 0.00 0.00
12:20 pm 12:20 Partly Cloudy with Nearby Thunderstorms 89 31.7 72 22.2 57 57 VRB 6 9 30.03 1017 9 14 0.00 0.00
12:40 pm 12:40 Partly Cloudy with Thunderstorms 86 30 72 22.2 63 63 W 8 13 30.03 1017 9 14 0.00 0.00
12:53 pm 12:53 Partly Cloudy with Nearby Thunderstorms 86 30 72 22.2 63 63 W 8 13 30.03 1017 9 14 0.00 0.00
1:05 pm 13:05 Mostly Sunny 84 28.9 74 23.3 72 72 WSW 6 9 30.00 1016 9 14 0.00 0.00
1:20 pm 13:20 Partly Cloudy with Nearby Thunderstorms 84 28.9 75 23.9 74 74 SSW 7 11 30.03 1017 9 14 0.00 0.00
1:45 pm 13:45 Sunny 82 27.8 74 23.3 77 77 SSW 7 11 30.03 1017 9 14 0.00 0.03
1:53 pm 13:53 Sunny with Nearby Thunderstorms 82 27.8 74 23.3 77 77 S 7 11 30.03 1017 9 14 0.00 0.03
2:16 pm 14:16 Sunny 82 27.8 74 23.3 77 77 S 7 11 30.00 1016 9 14 0.00 0.03
2:53 pm 14:53 Sunny with Light Rain 81 27.2 74 23.3 79 79 SSW 7 11 30.01 1016 9 14 0.00 0.03
3:53 pm 15:53 Partly Cloudy with Light Rain 81 27.2 76 24.4 85 85 S 7 11 30.00 1016 9 14 0.00 0.03
4:53 pm 16:53 Sunny with Light Rain 86 30 75 23.9 70 70 VRB 5 7 29.99 1016 10 16 0.00 0.03
5:53 pm 17:53 Sunny with Light Rain 85 29.4 73 22.8 68 68 SE 5 7 29.98 1015 10 16 0.00 0.03
6:53 pm 18:53 Sunny 83 28.3 75 23.9 77 77 E 3 6 29.99 1016 10 16 0.00 0.03
7:53 pm 19:53 Sunny 80 26.7 75 23.9 85 85 S 3 6 30.00 1016 9 14 0.00 0.00
8:53 pm 20:53 Clear 78 25.6 75 23.9 90 90 S 6 9 30.00 1016 10 16 0.00 0.00
9:53 pm 21:53 Clear 77 25 75 23.9 94 94 SSW 3 6 30.01 1016 9 14 0.00 0.03
10:53 pm 22:53 Clear 77 25 75 23.9 94 94 Calm 30.03 1017 8 13 0.00 0.00
11:53 pm 23:53 Clear 75 23.9 74 23.3 96 96 Calm 30.04 1017 8 13 0.00 0.00

Powered by AerisWeather